contact:dominique.lefevre@mio.osupytheas.fr, maurice.libes@osupytheas.fr, didier.mallarino@osupytheas.fr
Project:EMSO http://www.emso-fr.org/EMSO-France
Depth: 2436.0 m
Title:EMSO Ligure Ouest : Data MII capteur MICROCAT
DateTime_Computer,Latitude,Longitude,Temperature,Conductivity,Pressure,DateTime_Instrument
DateTime_Computer,Latitude,Longitude,degC,S m-1,dbar,DateTime_Instrument
2023-10-31T00:03:00Z,42.805,6.029,13.3041,4.60122,2470.787,2023-10-31T02:05:26Z
2023-10-31T00:06:03Z,42.805,6.029,13.3039,4.60130,2470.81,2023-10-31T02:08:29Z
2023-10-31T00:09:06Z,42.805,6.029,13.3042,4.60132,2470.824,2023-10-31T02:11:32Z
2023-10-31T00:12:09Z,42.805,6.029,13.3041,4.60129,2470.8,2023-10-31T02:14:35Z
2023-10-31T00:15:12Z,42.805,6.029,13.3043,4.60129,2470.824,2023-10-31T02:17:38Z
2023-10-31T00:18:15Z,42.805,6.029,13.3051,4.60155,2470.8,2023-10-31T02:20:41Z
2023-10-31T00:21:18Z,42.805,6.029,13.3043,4.60138,2470.777,2023-10-31T02:23:44Z
2023-10-31T00:24:21Z,42.805,6.029,13.3042,4.60120,2470.777,2023-10-31T02:26:47Z
2023-10-31T00:27:24Z,42.805,6.029,13.3043,4.60132,2470.763,2023-10-31T02:29:50Z
2023-10-31T00:30:27Z,42.805,6.029,13.3042,4.60142,2470.787,2023-10-31T02:32:53Z
2023-10-31T00:33:30Z,42.805,6.029,13.3036,4.60137,2470.763,2023-10-31T02:35:56Z
2023-10-31T00:36:34Z,42.805,6.029,13.3048,4.60131,2470.787,2023-10-31T02:38:59Z
2023-10-31T00:39:37Z,42.805,6.029,13.3070,4.60142,2470.773,2023-10-31T02:42:03Z
2023-10-31T00:42:40Z,42.805,6.029,13.3053,4.60157,2470.787,2023-10-31T02:45:06Z
2023-10-31T00:45:43Z,42.805,6.029,13.3048,4.60152,2470.754,2023-10-31T02:48:09Z
2023-10-31T00:48:46Z,42.805,6.029,13.3042,4.60143,2470.777,2023-10-31T02:51:12Z
2023-10-31T00:51:49Z,42.805,6.029,13.3041,4.60142,2470.787,2023-10-31T02:54:15Z
2023-10-31T00:54:52Z,42.805,6.029,13.3045,4.60132,2470.787,2023-10-31T02:57:18Z
2023-10-31T00:57:55Z,42.805,6.029,13.3053,4.60149,2470.74,2023-10-31T03:00:21Z
2023-10-31T01:00:58Z,42.805,6.029,13.3041,4.60160,2470.8,2023-10-31T03:03:24Z
2023-10-31T01:04:01Z,42.805,6.029,13.3044,4.60153,2470.754,2023-10-31T03:06:27Z
2023-10-31T01:07:04Z,42.805,6.029,13.3039,4.60130,2470.754,2023-10-31T03:09:30Z
2023-10-31T01:10:07Z,42.805,6.029,13.3048,4.60147,2470.754,2023-10-31T03:12:33Z
2023-10-31T01:13:11Z,42.805,6.029,13.3056,4.60155,2470.787,2023-10-31T03:15:36Z
2023-10-31T01:16:14Z,42.805,6.029,13.3040,4.60157,2470.763,2023-10-31T03:18:40Z
2023-10-31T01:19:17Z,42.805,6.029,13.3048,4.60138,2470.777,2023-10-31T03:21:43Z
2023-10-31T01:22:20Z,42.805,6.029,13.3039,4.60142,2470.754,2023-10-31T03:24:46Z
2023-10-31T01:25:23Z,42.805,6.029,13.3047,4.60162,2470.763,2023-10-31T03:27:49Z
2023-10-31T01:28:26Z,42.805,6.029,13.3061,4.60162,2470.74,2023-10-31T03:30:52Z
2023-10-31T01:31:29Z,42.805,6.029,13.3049,4.60140,2470.74,2023-10-31T03:33:55Z
2023-10-31T01:34:32Z,42.805,6.029,13.3056,4.60130,2470.777,2023-10-31T03:36:58Z
2023-10-31T01:37:35Z,42.805,6.029,13.3043,4.60147,2470.717,2023-10-31T03:40:01Z
2023-10-31T01:40:38Z,42.805,6.029,13.3054,4.60157,2470.74,2023-10-31T03:43:04Z
2023-10-31T01:43:41Z,42.805,6.029,13.3051,4.60155,2470.754,2023-10-31T03:46:07Z
2023-10-31T01:46:44Z,42.805,6.029,13.3042,4.60149,2470.74,2023-10-31T03:49:10Z
2023-10-31T01:49:48Z,42.805,6.029,13.3041,4.60129,2470.74,2023-10-31T03:52:13Z
2023-10-31T01:52:51Z,42.805,6.029,13.3040,4.60137,2470.763,2023-10-31T03:55:16Z
2023-10-31T01:55:54Z,42.805,6.029,13.3039,4.60130,2470.763,2023-10-31T03:58:20Z
2023-10-31T01:58:57Z,42.805,6.029,13.3044,4.60157,2470.74,2023-10-31T04:01:23Z
2023-10-31T02:02:00Z,42.805,6.029,13.3061,4.60150,2470.777,2023-10-31T04:04:26Z
2023-10-31T02:05:03Z,42.805,6.029,13.3052,4.60128,2470.693,2023-10-31T04:07:29Z
2023-10-31T02:08:06Z,42.805,6.029,13.3050,4.60167,2470.754,2023-10-31T04:10:32Z
2023-10-31T02:11:09Z,42.805,6.029,13.3048,4.60148,2470.717,2023-10-31T04:13:35Z
2023-10-31T02:14:12Z,42.805,6.029,13.3056,4.60143,2470.717,2023-10-31T04:16:38Z
2023-10-31T02:17:15Z,42.805,6.029,13.3050,4.60162,2470.74,2023-10-31T04:19:41Z
2023-10-31T02:20:18Z,42.805,6.029,13.3054,4.60152,2470.74,2023-10-31T04:22:44Z
2023-10-31T02:23:21Z,42.805,6.029,13.3053,4.60147,2470.707,2023-10-31T04:25:47Z
2023-10-31T02:26:25Z,42.805,6.029,13.3048,4.60157,2470.717,2023-10-31T04:28:50Z
2023-10-31T02:29:28Z,42.805,6.029,13.3041,4.60142,2470.693,2023-10-31T04:31:54Z
2023-10-31T02:32:31Z,42.805,6.029,13.3045,4.60158,2470.693,2023-10-31T04:34:57Z
2023-10-31T02:35:34Z,42.805,6.029,13.3059,4.60149,2470.707,2023-10-31T04:38:00Z
2023-10-31T02:38:37Z,42.805,6.029,13.3045,4.60130,2470.717,2023-10-31T04:41:03Z
2023-10-31T02:41:40Z,42.805,6.029,13.3034,4.60137,2470.717,2023-10-31T04:44:06Z
2023-10-31T02:44:43Z,42.805,6.029,13.3041,4.60137,2470.717,2023-10-31T04:47:09Z
2023-10-31T02:47:46Z,42.805,6.029,13.3045,4.60137,2470.74,2023-10-31T04:50:12Z
2023-10-31T02:50:49Z,42.805,6.029,13.3054,4.60138,2470.707,2023-10-31T04:53:15Z
2023-10-31T02:53:52Z,42.805,6.029,13.3040,4.60134,2470.717,2023-10-31T04:56:18Z
2023-10-31T02:56:55Z,42.805,6.029,13.3045,4.60122,2470.693,2023-10-31T04:59:21Z
2023-10-31T02:59:58Z,42.805,6.029,13.3048,4.60135,2470.693,2023-10-31T05:02:24Z
2023-10-31T03:03:02Z,42.805,6.029,13.3055,4.60140,2470.73,2023-10-31T05:05:27Z
2023-10-31T03:06:05Z,42.805,6.029,13.3053,4.60168,2470.74,2023-10-31T05:08:30Z
2023-10-31T03:09:08Z,42.805,6.029,13.3041,4.60145,2470.717,2023-10-31T05:11:34Z
2023-10-31T03:12:11Z,42.805,6.029,13.3046,4.60122,2470.73,2023-10-31T05:14:37Z
2023-10-31T03:15:14Z,42.805,6.029,13.3053,4.60129,2470.74,2023-10-31T05:17:40Z
2023-10-31T03:18:17Z,42.805,6.029,13.3042,4.60128,2470.717,2023-10-31T05:20:43Z
2023-10-31T03:21:20Z,42.805,6.029,13.3045,4.60137,2470.717,2023-10-31T05:23:46Z
2023-10-31T03:24:23Z,42.805,6.029,13.3040,4.60162,2470.717,2023-10-31T05:26:49Z
2023-10-31T03:27:26Z,42.805,6.029,13.3046,4.60132,2470.717,2023-10-31T05:29:52Z
2023-10-31T03:30:29Z,42.805,6.029,13.3052,4.60169,2470.74,2023-10-31T05:32:55Z
2023-10-31T03:33:32Z,42.805,6.029,13.3048,4.60147,2470.73,2023-10-31T05:35:58Z
2023-10-31T03:36:35Z,42.805,6.029,13.3051,4.60157,2470.74,2023-10-31T05:39:01Z
2023-10-31T03:39:39Z,42.805,6.029,13.3053,4.60148,2470.754,2023-10-31T05:42:04Z
2023-10-31T03:42:42Z,42.805,6.029,13.3048,4.60142,2470.73,2023-10-31T05:45:08Z
2023-10-31T03:45:45Z,42.805,6.029,13.3042,4.60129,2470.717,2023-10-31T05:48:11Z
2023-10-31T03:48:48Z,42.805,6.029,13.3041,4.60132,2470.73,2023-10-31T05:51:14Z
2023-10-31T03:51:51Z,42.805,6.029,13.3043,4.60146,2470.763,2023-10-31T05:54:17Z
2023-10-31T03:54:54Z,42.805,6.029,13.3047,4.60144,2470.74,2023-10-31T05:57:20Z
2023-10-31T03:57:57Z,42.805,6.029,13.3053,4.60152,2470.74,2023-10-31T06:00:23Z
2023-10-31T04:01:00Z,42.805,6.029,13.3043,4.60200,2470.74,2023-10-31T06:03:26Z
2023-10-31T04:04:03Z,42.805,6.029,13.3057,4.60160,2470.74,2023-10-31T06:06:29Z
2023-10-31T04:07:06Z,42.805,6.029,13.3043,4.60149,2470.754,2023-10-31T06:09:32Z
2023-10-31T04:10:09Z,42.805,6.029,13.3049,4.60171,2470.74,2023-10-31T06:12:35Z
2023-10-31T04:13:12Z,42.805,6.029,13.3047,4.60142,2470.73,2023-10-31T06:15:38Z
2023-10-31T04:16:16Z,42.805,6.029,13.3048,4.60146,2470.717,2023-10-31T06:18:41Z
2023-10-31T04:19:19Z,42.805,6.029,13.3053,4.60167,2470.74,2023-10-31T06:21:45Z
2023-10-31T04:22:22Z,42.805,6.029,13.3051,4.60161,2470.74,2023-10-31T06:24:48Z
2023-10-31T04:25:25Z,42.805,6.029,13.3051,4.60154,2470.777,2023-10-31T06:27:51Z
2023-10-31T04:28:28Z,42.805,6.029,13.3066,4.60143,2470.763,2023-10-31T06:30:54Z
2023-10-31T04:31:31Z,42.805,6.029,13.3040,4.60132,2470.763,2023-10-31T06:33:57Z
2023-10-31T04:34:34Z,42.805,6.029,13.3043,4.60155,2470.777,2023-10-31T06:37:00Z
2023-10-31T04:37:37Z,42.805,6.029,13.3044,4.60176,2470.74,2023-10-31T06:40:03Z
2023-10-31T04:40:40Z,42.805,6.029,13.3047,4.60156,2470.763,2023-10-31T06:43:06Z
2023-10-31T04:43:43Z,42.805,6.029,13.3049,4.60178,2470.81,2023-10-31T06:46:09Z
2023-10-31T04:46:46Z,42.805,6.029,13.3054,4.60162,2470.787,2023-10-31T06:49:12Z
2023-10-31T04:49:49Z,42.805,6.029,13.3052,4.60178,2470.8,2023-10-31T06:52:15Z
2023-10-31T04:52:53Z,42.805,6.029,13.3046,4.60151,2470.74,2023-10-31T06:55:18Z
2023-10-31T04:55:56Z,42.805,6.029,13.3055,4.60164,2470.81,2023-10-31T06:58:22Z
2023-10-31T04:58:59Z,42.805,6.029,13.3041,4.60160,2470.81,2023-10-31T07:01:25Z
2023-10-31T05:02:02Z,42.805,6.029,13.3057,4.60168,2470.787,2023-10-31T07:04:28Z
2023-10-31T05:05:05Z,42.805,6.029,13.3055,4.60182,2470.763,2023-10-31T07:07:31Z
2023-10-31T05:08:08Z,42.805,6.029,13.3056,4.60162,2470.787,2023-10-31T07:10:34Z
2023-10-31T05:11:11Z,42.805,6.029,13.3065,4.60175,2470.763,2023-10-31T07:13:37Z
2023-10-31T05:14:14Z,42.805,6.029,13.3062,4.60150,2470.81,2023-10-31T07:16:40Z
2023-10-31T05:17:17Z,42.805,6.029,13.3065,4.60183,2470.824,2023-10-31T07:19:43Z
2023-10-31T05:20:20Z,42.805,6.029,13.3048,4.60152,2470.824,2023-10-31T07:22:46Z
2023-10-31T05:23:23Z,42.805,6.029,13.3041,4.60149,2470.824,2023-10-31T07:25:49Z
2023-10-31T05:26:26Z,42.805,6.029,13.3045,4.60137,2470.824,2023-10-31T07:28:52Z
2023-10-31T05:29:30Z,42.805,6.029,13.3054,4.60144,2470.833,2023-10-31T07:31:55Z
2023-10-31T05:32:33Z,42.805,6.029,13.3054,4.60194,2470.824,2023-10-31T07:34:59Z
2023-10-31T05:35:36Z,42.805,6.029,13.3050,4.60168,2470.81,2023-10-31T07:38:02Z
2023-10-31T05:38:39Z,42.805,6.029,13.3041,4.60171,2470.824,2023-10-31T07:41:05Z
2023-10-31T05:41:42Z,42.805,6.029,13.3056,4.60183,2470.81,2023-10-31T07:44:08Z
2023-10-31T05:44:45Z,42.805,6.029,13.3046,4.60155,2470.81,2023-10-31T07:47:11Z
2023-10-31T05:47:48Z,42.805,6.029,13.3050,4.60152,2470.847,2023-10-31T07:50:14Z
2023-10-31T05:50:51Z,42.805,6.029,13.3042,4.60137,2470.857,2023-10-31T07:53:17Z
2023-10-31T05:53:54Z,42.805,6.029,13.3049,4.60158,2470.857,2023-10-31T07:56:20Z
2023-10-31T05:56:57Z,42.805,6.029,13.3050,4.60136,2470.824,2023-10-31T07:59:23Z
2023-10-31T06:00:00Z,42.805,6.029,13.3060,4.60150,2470.857,2023-10-31T08:02:26Z
2023-10-31T06:03:04Z,42.805,6.029,13.3056,4.60143,2470.847,2023-10-31T08:05:29Z
2023-10-31T06:06:07Z,42.805,6.029,13.3047,4.60165,2470.847,2023-10-31T08:08:33Z
2023-10-31T06:09:10Z,42.805,6.029,13.3054,4.60157,2470.857,2023-10-31T08:11:36Z
2023-10-31T06:12:13Z,42.805,6.029,13.3039,4.60151,2470.857,2023-10-31T08:14:39Z
2023-10-31T06:15:16Z,42.805,6.029,13.3043,4.60184,2470.904,2023-10-31T08:17:42Z
2023-10-31T06:18:19Z,42.805,6.029,13.3056,4.60155,2470.857,2023-10-31T08:20:45Z
2023-10-31T06:21:22Z,42.805,6.029,13.3075,4.60150,2470.894,2023-10-31T08:23:48Z
2023-10-31T06:24:25Z,42.805,6.029,13.3055,4.60165,2470.88,2023-10-31T08:26:51Z
2023-10-31T06:27:28Z,42.805,6.029,13.3096,4.60169,2470.904,2023-10-31T08:29:54Z
2023-10-31T06:30:31Z,42.805,6.029,13.3099,4.60195,2470.894,2023-10-31T08:32:57Z
2023-10-31T06:33:34Z,42.805,6.029,13.3080,4.60217,2470.88,2023-10-31T08:36:00Z
2023-10-31T06:36:37Z,42.805,6.029,13.3097,4.60185,2470.871,2023-10-31T08:39:03Z
2023-10-31T06:39:41Z,42.805,6.029,13.3095,4.60191,2470.904,2023-10-31T08:42:06Z
2023-10-31T06:42:44Z,42.805,6.029,13.3097,4.60208,2470.904,2023-10-31T08:45:10Z
2023-10-31T06:45:47Z,42.805,6.029,13.3095,4.60186,2470.857,2023-10-31T08:48:13Z
2023-10-31T06:48:50Z,42.805,6.029,13.3118,4.60155,2470.894,2023-10-31T08:51:16Z
2023-10-31T06:51:53Z,42.805,6.029,13.3115,4.60170,2470.88,2023-10-31T08:54:19Z
2023-10-31T06:54:56Z,42.805,6.029,13.3067,4.60142,2470.904,2023-10-31T08:57:22Z
2023-10-31T06:57:59Z,42.805,6.029,13.3073,4.60132,2470.89,2023-10-31T09:00:25Z
2023-10-31T07:01:02Z,42.805,6.029,13.3066,4.60124,2470.917,2023-10-31T09:03:28Z
2023-10-31T07:04:05Z,42.805,6.029,13.3076,4.60131,2470.94,2023-10-31T09:06:31Z
2023-10-31T07:07:08Z,42.805,6.029,13.3064,4.60155,2470.917,2023-10-31T09:09:34Z
2023-10-31T07:10:11Z,42.805,6.029,13.3093,4.60138,2470.894,2023-10-31T09:12:37Z
2023-10-31T07:13:14Z,42.805,6.029,13.3070,4.60145,2470.927,2023-10-31T09:15:40Z
2023-10-31T07:16:18Z,42.805,6.029,13.3069,4.60142,2470.917,2023-10-31T09:18:43Z
2023-10-31T07:19:21Z,42.805,6.029,13.3085,4.60150,2470.927,2023-10-31T09:21:47Z
2023-10-31T07:22:24Z,42.805,6.029,13.3071,4.60143,2470.917,2023-10-31T09:24:50Z
2023-10-31T07:25:27Z,42.805,6.029,13.3101,4.60134,2470.927,2023-10-31T09:27:53Z
2023-10-31T07:28:30Z,42.805,6.029,13.3080,4.60152,2470.94,2023-10-31T09:30:56Z
2023-10-31T07:31:33Z,42.805,6.029,13.3084,4.60122,2470.964,2023-10-31T09:33:59Z
2023-10-31T07:34:36Z,42.805,6.029,13.3061,4.60136,2470.904,2023-10-31T09:37:02Z
2023-10-31T07:37:39Z,42.805,6.029,13.3070,4.60136,2470.94,2023-10-31T09:40:05Z
2023-10-31T07:40:42Z,42.805,6.029,13.3078,4.60125,2470.95,2023-10-31T09:43:08Z
2023-10-31T07:43:45Z,42.805,6.029,13.3061,4.60139,2470.917,2023-10-31T09:46:11Z
2023-10-31T07:46:48Z,42.805,6.029,13.3076,4.60117,2470.964,2023-10-31T09:49:14Z
2023-10-31T07:49:52Z,42.805,6.029,13.3063,4.60134,2470.94,2023-10-31T09:52:17Z
2023-10-31T07:52:55Z,42.805,6.029,13.3065,4.60131,2470.904,2023-10-31T09:55:20Z
2023-10-31T07:55:58Z,42.805,6.029,13.3065,4.60132,2470.927,2023-10-31T09:58:24Z
2023-10-31T07:59:01Z,42.805,6.029,13.3068,4.60137,2470.95,2023-10-31T10:01:27Z
2023-10-31T08:02:04Z,42.805,6.029,13.3086,4.60126,2470.927,2023-10-31T10:04:30Z
2023-10-31T08:05:07Z,42.805,6.029,13.3069,4.60130,2470.927,2023-10-31T10:07:33Z
2023-10-31T08:08:10Z,42.805,6.029,13.3065,4.60121,2470.927,2023-10-31T10:10:36Z
2023-10-31T08:11:13Z,42.805,6.029,13.3063,4.60144,2470.964,2023-10-31T10:13:39Z
2023-10-31T08:14:16Z,42.805,6.029,13.3070,4.60131,2470.917,2023-10-31T10:16:42Z
2023-10-31T08:17:19Z,42.805,6.029,13.3040,4.60138,2470.94,2023-10-31T10:19:45Z
2023-10-31T08:20:22Z,42.805,6.029,13.3058,4.60140,2470.95,2023-10-31T10:22:48Z
2023-10-31T08:23:25Z,42.805,6.029,13.3056,4.60132,2470.964,2023-10-31T10:25:51Z
2023-10-31T08:26:29Z,42.805,6.029,13.3052,4.60134,2470.95,2023-10-31T10:28:54Z
2023-10-31T08:29:32Z,42.805,6.029,13.3061,4.60137,2470.94,2023-10-31T10:31:58Z
2023-10-31T08:32:35Z,42.805,6.029,13.3068,4.60160,2470.95,2023-10-31T10:35:01Z
2023-10-31T08:35:38Z,42.805,6.029,13.3061,4.60136,2470.95,2023-10-31T10:38:04Z
2023-10-31T08:38:41Z,42.805,6.029,13.3051,4.60129,2470.913,2023-10-31T10:41:07Z
2023-10-31T08:41:44Z,42.805,6.029,13.3056,4.60129,2470.94,2023-10-31T10:44:10Z
2023-10-31T08:44:47Z,42.805,6.029,13.3060,4.60167,2470.964,2023-10-31T10:47:13Z
2023-10-31T08:47:50Z,42.805,6.029,13.3078,4.60130,2470.964,2023-10-31T10:50:16Z
2023-10-31T08:50:53Z,42.805,6.029,13.3090,4.60135,2470.927,2023-10-31T10:53:19Z
2023-10-31T08:53:56Z,42.805,6.029,13.3063,4.60151,2470.95,2023-10-31T10:56:22Z
2023-10-31T08:56:59Z,42.805,6.029,13.3079,4.60120,2470.927,2023-10-31T10:59:25Z
2023-10-31T09:00:03Z,42.805,6.029,13.3053,4.60127,2470.94,2023-10-31T11:02:28Z
2023-10-31T09:03:06Z,42.805,6.029,13.3055,4.60142,2470.95,2023-10-31T11:05:32Z
2023-10-31T09:06:09Z,42.805,6.029,13.3069,4.60126,2470.987,2023-10-31T11:08:35Z
2023-10-31T09:09:12Z,42.805,6.029,13.3072,4.60135,2470.95,2023-10-31T11:11:38Z
2023-10-31T09:12:15Z,42.805,6.029,13.3061,4.60113,2470.904,2023-10-31T11:14:41Z
2023-10-31T09:15:18Z,42.805,6.029,13.3058,4.60120,2470.95,2023-10-31T11:17:44Z
2023-10-31T09:18:21Z,42.805,6.029,13.3046,4.60117,2470.94,2023-10-31T11:20:47Z
2023-10-31T09:21:24Z,42.805,6.029,13.3046,4.60123,2470.917,2023-10-31T11:23:50Z
2023-10-31T09:24:27Z,42.805,6.029,13.3056,4.60134,2470.927,2023-10-31T11:26:53Z
2023-10-31T09:27:30Z,42.805,6.029,13.3063,4.60127,2470.88,2023-10-31T11:29:56Z
2023-10-31T09:30:33Z,42.805,6.029,13.3041,4.60132,2470.94,2023-10-31T11:32:59Z
2023-10-31T09:33:37Z,42.805,6.029,13.3055,4.60155,2470.927,2023-10-31T11:36:02Z
2023-10-31T09:36:40Z,42.805,6.029,13.3071,4.60135,2470.904,2023-10-31T11:39:06Z
2023-10-31T09:39:43Z,42.805,6.029,13.3057,4.60150,2470.88,2023-10-31T11:42:09Z
2023-10-31T09:42:46Z,42.805,6.029,13.3076,4.60125,2470.94,2023-10-31T11:45:12Z
2023-10-31T09:45:49Z,42.805,6.029,13.3068,4.60122,2470.917,2023-10-31T11:48:15Z
2023-10-31T09:48:52Z,42.805,6.029,13.3070,4.60118,2470.917,2023-10-31T11:51:18Z
2023-10-31T09:51:55Z,42.805,6.029,13.3045,4.60163,2470.904,2023-10-31T11:54:21Z
2023-10-31T09:54:58Z,42.805,6.029,13.3064,4.60145,2470.94,2023-10-31T11:57:24Z
2023-10-31T09:58:01Z,42.805,6.029,13.3058,4.60149,2470.904,2023-10-31T12:00:27Z
2023-10-31T10:01:04Z,42.805,6.029,13.3066,4.60170,2470.904,2023-10-31T12:03:30Z
2023-10-31T10:04:07Z,42.805,6.029,13.3089,4.60139,2470.94,2023-10-31T12:06:33Z
2023-10-31T10:07:10Z,42.805,6.029,13.3085,4.60121,2470.894,2023-10-31T12:09:36Z
2023-10-31T10:10:14Z,42.805,6.029,13.3080,4.60142,2470.88,2023-10-31T12:12:39Z
2023-10-31T10:13:17Z,42.805,6.029,13.3076,4.60157,2470.904,2023-10-31T12:15:43Z
2023-10-31T10:16:20Z,42.805,6.029,13.3089,4.60178,2470.94,2023-10-31T12:18:46Z
2023-10-31T10:19:23Z,42.805,6.029,13.3062,4.60152,2470.88,2023-10-31T12:21:49Z
2023-10-31T10:22:26Z,42.805,6.029,13.3056,4.60160,2470.88,2023-10-31T12:24:52Z
2023-10-31T10:25:29Z,42.805,6.029,13.3067,4.60181,2470.927,2023-10-31T12:27:55Z
2023-10-31T10:28:32Z,42.805,6.029,13.3057,4.60150,2470.94,2023-10-31T12:30:58Z
2023-10-31T10:31:35Z,42.805,6.029,13.3073,4.60180,2470.894,2023-10-31T12:34:01Z
2023-10-31T10:34:38Z,42.805,6.029,13.3083,4.60211,2470.833,2023-10-31T12:37:04Z
2023-10-31T10:37:41Z,42.805,6.029,13.3047,4.60195,2470.917,2023-10-31T12:40:07Z
2023-10-31T10:40:44Z,42.805,6.029,13.3071,4.60176,2470.894,2023-10-31T12:43:10Z
2023-10-31T10:43:48Z,42.805,6.029,13.3091,4.60166,2470.88,2023-10-31T12:46:13Z
2023-10-31T10:46:51Z,42.805,6.029,13.3053,4.60197,2470.88,2023-10-31T12:49:17Z
2023-10-31T10:49:54Z,42.805,6.029,13.3074,4.60171,2470.871,2023-10-31T12:52:20Z
2023-10-31T10:52:57Z,42.805,6.029,13.3084,4.60156,2470.857,2023-10-31T12:55:23Z
2023-10-31T10:56:00Z,42.805,6.029,13.3082,4.60162,2470.88,2023-10-31T12:58:26Z
2023-10-31T10:59:03Z,42.805,6.029,13.3061,4.60160,2470.833,2023-10-31T13:01:29Z
2023-10-31T11:02:06Z,42.805,6.029,13.3065,4.60146,2470.857,2023-10-31T13:04:32Z
2023-10-31T11:05:09Z,42.805,6.029,13.3073,4.60169,2470.847,2023-10-31T13:07:35Z
2023-10-31T11:08:12Z,42.805,6.029,13.3075,4.60170,2470.847,2023-10-31T13:10:38Z
2023-10-31T11:11:15Z,42.805,6.029,13.3061,4.60157,2470.894,2023-10-31T13:13:41Z
2023-10-31T11:14:18Z,42.805,6.029,13.3079,4.60172,2470.894,2023-10-31T13:16:44Z
2023-10-31T11:17:22Z,42.805,6.029,13.3062,4.60180,2470.857,2023-10-31T13:19:47Z
2023-10-31T11:20:25Z,42.805,6.029,13.3039,4.60175,2470.871,2023-10-31T13:22:51Z
2023-10-31T11:23:28Z,42.805,6.029,13.3066,4.60182,2470.871,2023-10-31T13:25:54Z
2023-10-31T11:26:31Z,42.805,6.029,13.3086,4.60170,2470.81,2023-10-31T13:28:57Z
2023-10-31T11:29:34Z,42.805,6.029,13.3084,4.60167,2470.871,2023-10-31T13:32:00Z
2023-10-31T11:32:36Z,42.805,6.029,13.3079,4.60165,2470.833,2023-10-31T13:35:01Z
2023-10-31T11:35:39Z,42.805,6.029,13.3113,4.60188,2470.847,2023-10-31T13:38:05Z
2023-10-31T11:38:42Z,42.805,6.029,13.3097,4.60205,2470.81,2023-10-31T13:41:08Z
2023-10-31T11:41:45Z,42.805,6.029,13.3098,4.60210,2470.871,2023-10-31T13:44:11Z
2023-10-31T11:44:48Z,42.805,6.029,13.3108,4.60213,2470.847,2023-10-31T13:47:14Z
2023-10-31T11:47:51Z,42.805,6.029,13.3076,4.60188,2470.871,2023-10-31T13:50:17Z
2023-10-31T11:50:54Z,42.805,6.029,13.3086,4.60175,2470.847,2023-10-31T13:53:20Z
2023-10-31T11:53:57Z,42.805,6.029,13.3087,4.60197,2470.857,2023-10-31T13:56:23Z
2023-10-31T11:57:00Z,42.805,6.029,13.3078,4.60194,2470.8,2023-10-31T13:59:26Z
2023-10-31T12:00:03Z,42.805,6.029,13.3058,4.60195,2470.857,2023-10-31T14:02:29Z
2023-10-31T12:03:06Z,42.805,6.029,13.3068,4.60183,2470.8,2023-10-31T14:05:32Z
2023-10-31T12:06:10Z,42.805,6.029,13.3058,4.60218,2470.847,2023-10-31T14:08:35Z
2023-10-31T12:09:13Z,42.805,6.029,13.3074,4.60243,2470.847,2023-10-31T14:11:39Z
2023-10-31T12:12:16Z,42.805,6.029,13.3072,4.60181,2470.824,2023-10-31T14:14:42Z
2023-10-31T12:15:19Z,42.805,6.029,13.3073,4.60217,2470.833,2023-10-31T14:17:45Z
2023-10-31T12:18:22Z,42.805,6.029,13.3051,4.60210,2470.824,2023-10-31T14:20:48Z
2023-10-31T12:21:25Z,42.805,6.029,13.3069,4.60185,2470.81,2023-10-31T14:23:51Z
2023-10-31T12:24:28Z,42.805,6.029,13.3068,4.60191,2470.824,2023-10-31T14:26:54Z
2023-10-31T12:27:31Z,42.805,6.029,13.3064,4.60182,2470.8,2023-10-31T14:29:57Z
2023-10-31T12:30:34Z,42.805,6.029,13.3085,4.60189,2470.81,2023-10-31T14:33:00Z
2023-10-31T12:33:37Z,42.805,6.029,13.3069,4.60189,2470.81,2023-10-31T14:36:03Z
2023-10-31T12:36:40Z,42.805,6.029,13.3064,4.60193,2470.787,2023-10-31T14:39:06Z
2023-10-31T12:39:43Z,42.805,6.029,13.3064,4.60197,2470.824,2023-10-31T14:42:09Z
2023-10-31T12:42:47Z,42.805,6.029,13.3053,4.60141,2470.787,2023-10-31T14:45:12Z
2023-10-31T12:45:50Z,42.805,6.029,13.3047,4.60166,2470.838,2023-10-31T14:48:16Z
2023-10-31T12:48:53Z,42.805,6.029,13.3052,4.60201,2470.763,2023-10-31T14:51:19Z
2023-10-31T12:51:56Z,42.805,6.029,13.3089,4.60181,2470.8,2023-10-31T14:54:22Z
2023-10-31T12:54:59Z,42.805,6.029,13.3067,4.60187,2470.787,2023-10-31T14:57:25Z
2023-10-31T12:58:02Z,42.805,6.029,13.3082,4.60178,2470.763,2023-10-31T15:00:28Z
2023-10-31T13:01:05Z,42.805,6.029,13.3053,4.60185,2470.8,2023-10-31T15:03:31Z
2023-10-31T13:04:08Z,42.805,6.029,13.3073,4.60167,2470.8,2023-10-31T15:06:34Z
2023-10-31T13:07:11Z,42.805,6.029,13.3071,4.60178,2470.8,2023-10-31T15:09:37Z
2023-10-31T13:10:14Z,42.805,6.029,13.3069,4.60175,2470.74,2023-10-31T15:12:40Z
2023-10-31T13:13:17Z,42.805,6.029,13.3063,4.60161,2470.787,2023-10-31T15:15:43Z
2023-10-31T13:16:21Z,42.805,6.029,13.3049,4.60157,2470.81,2023-10-31T15:18:46Z
2023-10-31T13:19:24Z,42.805,6.029,13.3072,4.60176,2470.787,2023-10-31T15:21:50Z
2023-10-31T13:22:27Z,42.805,6.029,13.3063,4.60186,2470.763,2023-10-31T15:24:53Z
2023-10-31T13:25:30Z,42.805,6.029,13.3068,4.60167,2470.787,2023-10-31T15:27:56Z
2023-10-31T13:28:33Z,42.805,6.029,13.3056,4.60167,2470.777,2023-10-31T15:30:59Z
2023-10-31T13:31:35Z,42.805,6.029,13.3078,4.60183,2470.777,2023-10-31T15:34:01Z
2023-10-31T13:34:38Z,42.805,6.029,13.3054,4.60185,2470.763,2023-10-31T15:37:04Z
2023-10-31T13:37:41Z,42.805,6.029,13.3059,4.60185,2470.763,2023-10-31T15:40:07Z
2023-10-31T13:40:44Z,42.805,6.029,13.3069,4.60181,2470.74,2023-10-31T15:43:10Z
2023-10-31T13:43:47Z,42.805,6.029,13.3053,4.60207,2470.763,2023-10-31T15:46:13Z
2023-10-31T13:46:50Z,42.805,6.029,13.3064,4.60170,2470.777,2023-10-31T15:49:16Z
2023-10-31T13:49:53Z,42.805,6.029,13.3065,4.60157,2470.763,2023-10-31T15:52:19Z
2023-10-31T13:52:56Z,42.805,6.029,13.3069,4.60167,2470.777,2023-10-31T15:55:22Z
2023-10-31T13:55:59Z,42.805,6.029,13.3067,4.60186,2470.8,2023-10-31T15:58:25Z
2023-10-31T13:59:02Z,42.805,6.029,13.3051,4.60193,2470.726,2023-10-31T16:01:28Z
2023-10-31T14:02:06Z,42.805,6.029,13.3068,4.60179,2470.763,2023-10-31T16:04:31Z
2023-10-31T14:05:09Z,42.805,6.029,13.3052,4.60158,2470.74,2023-10-31T16:07:35Z
2023-10-31T14:08:12Z,42.805,6.029,13.3056,4.60182,2470.74,2023-10-31T16:10:38Z
2023-10-31T14:11:15Z,42.805,6.029,13.3067,4.60184,2470.717,2023-10-31T16:13:41Z
2023-10-31T14:14:18Z,42.805,6.029,13.3061,4.60178,2470.763,2023-10-31T16:16:44Z
2023-10-31T14:17:21Z,42.805,6.029,13.3063,4.60185,2470.74,2023-10-31T16:19:47Z
2023-10-31T14:20:24Z,42.805,6.029,13.3062,4.60180,2470.777,2023-10-31T16:22:50Z
2023-10-31T14:23:27Z,42.805,6.029,13.3060,4.60164,2470.763,2023-10-31T16:25:53Z
2023-10-31T14:26:30Z,42.805,6.029,13.3077,4.60183,2470.73,2023-10-31T16:28:56Z
2023-10-31T14:29:33Z,42.805,6.029,13.3062,4.60173,2470.754,2023-10-31T16:31:59Z
2023-10-31T14:32:36Z,42.805,6.029,13.3085,4.60203,2470.777,2023-10-31T16:35:02Z
2023-10-31T14:35:40Z,42.805,6.029,13.3078,4.60185,2470.717,2023-10-31T16:38:05Z
2023-10-31T14:38:43Z,42.805,6.029,13.3082,4.60180,2470.754,2023-10-31T16:41:09Z
2023-10-31T14:41:46Z,42.805,6.029,13.3069,4.60176,2470.777,2023-10-31T16:44:12Z
2023-10-31T14:44:49Z,42.805,6.029,13.3065,4.60181,2470.74,2023-10-31T16:47:15Z
2023-10-31T14:47:52Z,42.805,6.029,13.3073,4.60138,2470.74,2023-10-31T16:50:18Z
2023-10-31T14:50:55Z,42.805,6.029,13.3051,4.60163,2470.693,2023-10-31T16:53:21Z
2023-10-31T14:53:58Z,42.805,6.029,13.3056,4.60166,2470.763,2023-10-31T16:56:24Z
2023-10-31T14:57:01Z,42.805,6.029,13.3051,4.60178,2470.74,2023-10-31T16:59:27Z
2023-10-31T15:00:04Z,42.805,6.029,13.3079,4.60214,2470.777,2023-10-31T17:02:30Z
2023-10-31T15:03:07Z,42.805,6.029,13.3061,4.60199,2470.73,2023-10-31T17:05:33Z